星链-6118 (STARLINK-6118 )

导读 | 豆包AI

STARLINK-6118是美国太空探索技术公司(SpaceX)星链(Starlink)计划中的卫星,于2023年6月23日发射入轨,属于星链卫星互联网星座的组成部分。星链项目旨在通过近地轨道卫星群,为全球提供高速互联网接入服务,该卫星的成功发射进一步扩充了星链星座的组网规模。

Basic Information
目录编号:
57106
目录名称:
STARLINK-6118
国际标识:
2023-090F
轨道中心:
EARTH
卫星名称:
星链-6118
卫星全名:
星链-6118 (STARLINK-6118 )
卫星状态:
在轨 (已飞行1042 天)
发射日期:
2023-06-23 UTC
国别 :
美国 (US)
星等 :
--
Orbit Information
数据来源 国际轨道数据 AOE轨道数据
星历时间 2026-04-30T08:18:53+0800
10小时前
查看轨道信息
2026-04-26T18:00:00+0800
4天前
查看轨道信息
半长轴 6863.695km 6863.675km
偏心率 0.0001092 0.000001
轨道倾角 43.001° 43.008°
近地点辐角 266.325° 146.778°
升交点赤经 351.534° 11.824°
平近点角 93.748° 223.111°
近地点 484.808km 485.531km
远地点 486.308km 485.545km
周期 94.318分钟 94.318分钟
每日圈数 15.267427 15.267495
Detailed Information
固有亮度:
5
最大亮度:
2.4
卫星平台:
Starlink v1.5
覆盖范围:
全球
运营商:
太空探索技术公司
运营商所在国:
美国
制造商(研发单位):
太空探索技术公司
制造商所在国:
美国
使用方式:
暂无
Satellite Introduction
星链(Starlink)计划是由太空探索技术公司(SpaceX)提出的一个巨型低轨卫星互联网星座项目,计划在2019年至2024年间在太空搭建由约1.2万颗卫星组成的“星链”网络,其中1584颗将部署在地球上空550千米处的近地轨道,并从2020年开始工作。该卫星仍在工作。
2D Orbit Map
3D Orbit Map
Orbit Altitude Analysis Chart
Orbit Inclination Analysis Chart
Orbit Comprehensive Analysis Chart
View Comprehensive Chart